Location: Big Sable Point
(44.0575°N, 86.5149°W)
Time: 01:44:45
(UTC-04:00)

N. Korean satellite - Visible Passes

Search period start: 22 September 2018 00:00
Search period end: 02 October 2018 00:00
Orbit: 458 x 511 km, 97.2° (Epoch: 20 September)

Date Brightness Start Highest point End Pass type
(mag) Time Alt. Az. Time Alt. Az. Time Alt. Az.
22 Sep 9.6 20:07:55 10° SSW 20:10:41 22° W 20:13:30 10° NW visible
25 Sep 10.1 20:29:38 10° WSW 20:31:16 13° W 20:32:55 10° WNW visible
26 Sep 9.4 20:03:47 10° SSW 20:06:43 24° W 20:09:43 10° NW visible
28 Sep 10.4 07:05:36 10° ENE 07:07:21 13° E 07:09:05 10° ESE visible
29 Sep 10.0 20:25:16 10° SW 20:27:16 14° W 20:29:17 10° WNW visible
30 Sep 9.2 19:59:38 10° SSW 20:02:43 27° W 20:05:52 10° NW visible
